Time,TemperatureF,DewpointF,PressureIn,WindDirection,WindDirectionDegrees,WindSpeedMPH,WindSpeedGustMPH,Humidity,HourlyPrecipIn,Conditions,Clouds,dailyrainin,SolarRadiationWatts/m^2,SoftwareType,DateUTC
2013-05-20 00:01:00,42.0,41.0,-100.00,North,354,2.0,4.0,95,0.00,,,0.00,0.000000,,2013-05-20 06:01:00,
2013-05-20 00:11:00,42.0,41.0,-100.00,North,354,2.0,4.0,95,0.00,,,0.00,0.000000,,2013-05-20 06:11:00,
2013-05-20 00:32:00,39.0,38.0,-100.00,NNE,14,1.0,4.0,98,0.00,,,0.00,0.000000,,2013-05-20 06:32:00,
2013-05-20 00:42:00,39.0,38.0,-100.00,NNE,14,1.0,4.0,98,0.00,,,0.00,0.000000,,2013-05-20 06:42:00,
2013-05-20 00:52:00,39.0,38.0,-100.00,NNE,14,1.0,4.0,98,0.00,,,0.00,0.000000,,2013-05-20 06:52:00,
2013-05-20 01:01:00,39.0,38.0,-100.00,NNE,14,1.0,4.0,98,0.00,,,0.00,0.000000,,2013-05-20 07:01:00,
2013-05-20 01:11:00,39.0,38.0,-100.00,NNE,14,1.0,4.0,98,0.00,,,0.00,0.000000,,2013-05-20 07:11:00,
2013-05-20 01:42:00,40.0,40.0,-100.00,NNW,345,2.0,4.0,99,0.00,,,-99.99,0.000000,,2013-05-20 07:42:00,
2013-05-20 01:52:00,40.0,40.0,-100.00,NNW,345,2.0,4.0,99,0.00,,,-99.99,0.000000,,2013-05-20 07:52:00,
2013-05-20 02:01:00,40.0,40.0,-100.00,NNW,345,2.0,4.0,99,0.00,,,-99.99,0.000000,,2013-05-20 08:01:00,
2013-05-20 02:11:00,40.0,40.0,-100.00,NNW,345,2.0,4.0,99,0.00,,,-99.99,0.000000,,2013-05-20 08:11:00,
2013-05-20 02:42:00,42.0,42.0,-100.00,NNW,343,2.0,4.0,99,0.00,,,0.00,0.000000,,2013-05-20 08:42:00,
2013-05-20 02:52:00,42.0,42.0,-100.00,NNW,343,2.0,4.0,99,0.00,,,0.00,0.000000,,2013-05-20 08:52:00,
2013-05-20 03:01:00,42.0,42.0,-100.00,NNW,343,2.0,4.0,99,0.00,,,0.00,0.000000,,2013-05-20 09:01:00,
2013-05-20 03:12:00,42.0,42.0,-100.00,NNW,343,2.0,4.0,99,0.00,,,0.00,0.000000,,2013-05-20 09:12:00,
2013-05-20 03:43:00,42.0,42.0,-100.00,NNW,343,2.0,4.0,99,0.00,,,0.00,0.000000,,2013-05-20 09:43:00,
2013-05-20 03:52:00,42.0,42.0,-100.00,NNW,343,2.0,4.0,99,0.00,,,0.00,0.000000,,2013-05-20 09:52:00,
2013-05-20 04:03:00,42.0,42.0,-100.00,NNW,343,2.0,4.0,99,0.00,,,0.00,0.000000,,2013-05-20 10:03:00,
2013-05-20 04:12:00,42.0,42.0,-100.00,NNW,343,2.0,4.0,99,0.00,,,0.00,0.000000,,2013-05-20 10:12:00,
2013-05-20 04:33:00,38.0,37.0,-100.00,NE,39,1.0,3.0,98,0.00,,,0.00,0.000000,,2013-05-20 10:33:00,
2013-05-20 04:42:00,38.0,37.0,-100.00,NE,39,1.0,3.0,98,0.00,,,0.00,0.000000,,2013-05-20 10:42:00,
2013-05-20 04:52:00,38.0,37.0,-100.00,NE,39,1.0,3.0,98,0.00,,,0.00,0.000000,,2013-05-20 10:52:00,
2013-05-20 05:02:00,38.0,37.0,-100.00,NE,39,1.0,3.0,98,0.00,,,0.00,0.000000,,2013-05-20 11:02:00,
2013-05-20 05:12:00,38.0,37.0,-100.00,NE,39,1.0,3.0,98,0.00,,,0.00,0.000000,,2013-05-20 11:12:00,
2013-05-20 05:42:00,35.0,34.0,-100.00,NNW,348,2.0,4.0,97,0.00,,,0.00,0.000000,,2013-05-20 11:42:00,
2013-05-20 05:52:00,35.0,34.0,-100.00,NNW,348,2.0,4.0,97,0.00,,,0.00,0.000000,,2013-05-20 11:52:00,
2013-05-20 06:01:00,35.0,34.0,-100.00,NNW,348,2.0,4.0,97,0.00,,,0.00,0.000000,,2013-05-20 12:01:00,
2013-05-20 06:11:00,35.0,34.0,-100.00,NNW,348,2.0,4.0,97,0.00,,,0.00,0.000000,,2013-05-20 12:11:00,
2013-05-20 06:42:00,33.0,32.0,-100.00,North,2,2.0,3.0,98,0.00,,,0.00,2.000000,,2013-05-20 12:42:00,
2013-05-20 06:52:00,33.0,32.0,-100.00,North,2,2.0,3.0,98,0.00,,,0.00,2.000000,,2013-05-20 12:52:00,
2013-05-20 07:42:00,36.0,36.0,-100.00,North,2,1.0,3.0,99,0.00,,,0.00,39.000000,,2013-05-20 13:42:00,
2013-05-20 07:52:00,36.0,36.0,-100.00,North,2,1.0,3.0,99,0.00,,,0.00,39.000000,,2013-05-20 13:52:00,
2013-05-20 08:01:00,36.0,36.0,-100.00,North,2,1.0,3.0,99,0.00,,,0.00,39.000000,,2013-05-20 14:01:00,
2013-05-20 08:11:00,36.0,36.0,-100.00,North,2,1.0,3.0,99,0.00,,,0.00,39.000000,,2013-05-20 14:11:00,
2013-05-20 08:32:00,43.0,42.0,-100.00,NNE,18,2.0,4.0,98,0.00,,,0.00,160.000000,,2013-05-20 14:32:00,
2013-05-20 08:42:00,43.0,42.0,-100.00,NNE,18,2.0,4.0,98,0.00,,,0.00,160.000000,,2013-05-20 14:42:00,
2013-05-20 08:52:00,43.0,42.0,-100.00,NNE,18,2.0,4.0,98,0.00,,,0.00,160.000000,,2013-05-20 14:52:00,
2013-05-20 09:01:00,43.0,42.0,-100.00,NNE,18,2.0,4.0,98,0.00,,,0.00,160.000000,,2013-05-20 15:01:00,
2013-05-20 09:11:00,43.0,42.0,-100.00,NNE,18,2.0,4.0,98,0.00,,,0.00,160.000000,,2013-05-20 15:11:00,
2013-05-20 09:42:00,50.0,49.0,-100.00,SSE,147,1.0,2.0,97,0.00,,,0.00,195.000000,,2013-05-20 15:42:00,
2013-05-20 09:53:00,50.0,49.0,-100.00,SSE,147,1.0,2.0,97,0.00,,,0.00,195.000000,,2013-05-20 15:53:00,
2013-05-20 10:02:00,50.0,49.0,-100.00,SSE,147,1.0,2.0,97,0.00,,,0.00,195.000000,,2013-05-20 16:02:00,
2013-05-20 10:12:00,50.0,49.0,-100.00,SSE,147,1.0,2.0,97,0.00,,,0.00,195.000000,,2013-05-20 16:12:00,
2013-05-20 10:33:00,57.0,45.0,-100.00,SSE,164,5.0,8.0,65,0.00,,,0.00,669.000000,,2013-05-20 16:33:00,
2013-05-20 10:42:00,57.0,45.0,-100.00,SSE,164,5.0,8.0,65,0.00,,,0.00,669.000000,,2013-05-20 16:42:00,
2013-05-20 10:53:00,57.0,45.0,-100.00,SSE,164,5.0,8.0,65,0.00,,,0.00,669.000000,,2013-05-20 16:53:00,
2013-05-20 11:02:00,57.0,45.0,-100.00,SSE,164,5.0,8.0,65,0.00,,,0.00,669.000000,,2013-05-20 17:02:00,
2013-05-20 11:11:00,57.0,45.0,-100.00,SSE,164,5.0,8.0,65,0.00,,,0.00,669.000000,,2013-05-20 17:11:00,
2013-05-20 11:45:00,56.0,46.0,-100.00,NE,46,2.0,7.0,68,0.00,,,0.00,301.000000,,2013-05-20 17:45:00,
2013-05-20 11:53:00,56.0,46.0,-100.00,NE,46,2.0,7.0,68,0.00,,,0.00,301.000000,,2013-05-20 17:53:00,
2013-05-20 12:02:00,56.0,46.0,-100.00,NE,46,2.0,7.0,68,0.00,,,0.00,301.000000,,2013-05-20 18:02:00,
2013-05-20 12:12:00,56.0,46.0,-100.00,NE,46,2.0,7.0,68,0.00,,,0.00,301.000000,,2013-05-20 18:12:00,
2013-05-20 12:42:00,59.0,46.0,-100.00,SSW,192,4.0,6.0,61,0.00,,,0.00,445.000000,,2013-05-20 18:42:00,
2013-05-20 12:55:00,59.0,46.0,-100.00,SSW,192,4.0,6.0,61,0.00,,,0.00,445.000000,,2013-05-20 18:55:00,
2013-05-20 13:04:00,59.0,46.0,-100.00,SSW,192,4.0,6.0,61,0.00,,,0.00,445.000000,,2013-05-20 19:04:00,
2013-05-20 13:11:00,59.0,46.0,-100.00,SSW,192,4.0,6.0,61,0.00,,,0.00,445.000000,,2013-05-20 19:11:00,
2013-05-20 13:42:00,60.0,44.0,-100.00,South,176,3.0,8.0,56,0.00,,,0.00,757.000000,,2013-05-20 19:42:00,
2013-05-20 13:52:00,60.0,44.0,-100.00,South,176,3.0,8.0,56,0.00,,,0.00,757.000000,,2013-05-20 19:52:00,
2013-05-20 14:01:00,60.0,44.0,-100.00,South,176,3.0,8.0,56,0.00,,,0.00,757.000000,,2013-05-20 20:01:00,
2013-05-20 14:11:00,60.0,44.0,-100.00,South,176,3.0,8.0,56,0.00,,,0.00,757.000000,,2013-05-20 20:11:00,
2013-05-20 14:42:00,63.0,42.0,-100.00,ENE,77,4.0,8.0,46,0.00,,,0.00,764.000000,,2013-05-20 20:42:00,
2013-05-20 14:52:00,63.0,42.0,-100.00,ENE,77,4.0,8.0,46,0.00,,,0.00,764.000000,,2013-05-20 20:52:00,
2013-05-20 15:01:00,63.0,42.0,-100.00,ENE,77,4.0,8.0,46,0.00,,,0.00,764.000000,,2013-05-20 21:01:00,
2013-05-20 15:11:00,63.0,42.0,-100.00,ENE,77,4.0,8.0,46,0.00,,,0.00,764.000000,,2013-05-20 21:11:00,
2013-05-20 15:43:00,65.0,41.0,-100.00,SSE,155,5.0,10.0,42,0.00,,,0.00,1109.000000,,2013-05-20 21:43:00,
2013-05-20 15:53:00,65.0,41.0,-100.00,SSE,155,5.0,10.0,42,0.00,,,0.00,1109.000000,,2013-05-20 21:53:00,
2013-05-20 16:02:00,65.0,41.0,-100.00,SSE,155,5.0,10.0,42,0.00,,,0.00,1109.000000,,2013-05-20 22:02:00,
2013-05-20 16:12:00,65.0,41.0,-100.00,SSE,155,5.0,10.0,42,0.00,,,0.00,1109.000000,,2013-05-20 22:12:00,
2013-05-20 16:42:00,67.0,44.0,-100.00,SE,128,5.0,11.0,43,0.00,,,0.00,1026.000000,,2013-05-20 22:42:00,
2013-05-20 16:52:00,67.0,44.0,-100.00,SE,128,5.0,11.0,43,0.00,,,0.00,1026.000000,,2013-05-20 22:52:00,
2013-05-20 17:02:00,67.0,44.0,-100.00,SE,128,5.0,11.0,43,0.00,,,0.00,1026.000000,,2013-05-20 23:02:00,
2013-05-20 17:12:00,67.0,44.0,-100.00,SE,128,5.0,11.0,43,0.00,,,0.00,1026.000000,,2013-05-20 23:12:00,
2013-05-20 17:42:00,66.0,42.0,-100.00,South,184,5.0,9.0,42,0.00,,,0.00,734.000000,,2013-05-20 23:42:00,
2013-05-20 17:53:00,66.0,42.0,-100.00,South,184,5.0,9.0,42,0.00,,,0.00,734.000000,,2013-05-20 23:53:00,
2013-05-20 18:01:00,66.0,42.0,-100.00,South,184,5.0,9.0,42,0.00,,,0.00,734.000000,,2013-05-21 00:01:00,
2013-05-20 18:11:00,66.0,42.0,-100.00,South,184,5.0,9.0,42,0.00,,,0.00,734.000000,,2013-05-21 00:11:00,
2013-05-20 18:42:00,66.0,42.0,-100.00,SSE,152,4.0,8.0,42,0.00,,,0.00,572.000000,,2013-05-21 00:42:00,
2013-05-20 18:52:00,66.0,42.0,-100.00,SSE,152,4.0,8.0,42,0.00,,,0.00,572.000000,,2013-05-21 00:52:00,
2013-05-20 19:01:00,66.0,42.0,-100.00,SSE,152,4.0,8.0,42,0.00,,,0.00,572.000000,,2013-05-21 01:01:00,
2013-05-20 19:11:00,66.0,42.0,-100.00,SSE,152,4.0,8.0,42,0.00,,,0.00,572.000000,,2013-05-21 01:11:00,
2013-05-20 19:42:00,66.0,45.0,-100.00,South,170,3.0,9.0,46,0.00,,,0.00,336.000000,,2013-05-21 01:42:00,
2013-05-20 19:52:00,66.0,45.0,-100.00,South,170,3.0,9.0,46,0.00,,,0.00,336.000000,,2013-05-21 01:52:00,
2013-05-20 20:01:00,66.0,45.0,-100.00,South,170,3.0,9.0,46,0.00,,,0.00,336.000000,,2013-05-21 02:01:00,
2013-05-20 20:11:00,66.0,45.0,-100.00,South,170,3.0,9.0,46,0.00,,,0.00,336.000000,,2013-05-21 02:11:00,
2013-05-20 20:32:00,63.0,42.0,-100.00,ESE,104,4.0,7.0,46,0.00,,,0.00,226.000000,,2013-05-21 02:32:00,
2013-05-20 20:42:00,63.0,42.0,-100.00,ESE,104,4.0,7.0,46,0.00,,,0.00,226.000000,,2013-05-21 02:42:00,
2013-05-20 20:52:00,63.0,42.0,-100.00,ESE,104,4.0,7.0,46,0.00,,,0.00,226.000000,,2013-05-21 02:52:00,
2013-05-20 21:02:00,63.0,42.0,-100.00,ESE,104,4.0,7.0,46,0.00,,,0.00,226.000000,,2013-05-21 03:02:00,
2013-05-20 21:11:00,63.0,42.0,-100.00,ESE,104,4.0,7.0,46,0.00,,,0.00,226.000000,,2013-05-21 03:11:00,
2013-05-20 21:33:00,53.0,42.0,-100.00,NNW,331,2.0,7.0,66,0.00,,,0.00,54.000000,,2013-05-21 03:33:00,
2013-05-20 21:43:00,53.0,42.0,-100.00,NNW,331,2.0,7.0,66,0.00,,,0.00,54.000000,,2013-05-21 03:43:00,
2013-05-20 21:53:00,53.0,42.0,-100.00,NNW,331,2.0,7.0,66,0.00,,,0.00,54.000000,,2013-05-21 03:53:00,
2013-05-20 22:03:00,53.0,42.0,-100.00,NNW,331,2.0,7.0,66,0.00,,,0.00,54.000000,,2013-05-21 04:03:00,
2013-05-20 22:12:00,53.0,42.0,-100.00,NNW,331,2.0,7.0,66,0.00,,,0.00,54.000000,,2013-05-21 04:12:00,
2013-05-20 22:42:00,45.0,42.0,-100.00,NNW,342,2.0,4.0,90,0.00,,,0.00,1.000000,,2013-05-21 04:42:00,
2013-05-20 22:53:00,45.0,42.0,-100.00,NNW,342,2.0,4.0,90,0.00,,,0.00,1.000000,,2013-05-21 04:53:00,
2013-05-20 23:11:00,45.0,42.0,-100.00,NNW,342,2.0,4.0,90,0.00,,,0.00,1.000000,,2013-05-21 05:11:00,
2013-05-20 23:32:00,42.0,41.0,-100.00,NNW,333,2.0,5.0,96,0.00,,,0.00,0.000000,,2013-05-21 05:32:00,
2013-05-20 23:52:00,42.0,41.0,-100.00,NNW,333,2.0,5.0,96,0.00,,,0.00,0.000000,,2013-05-21 05:52:00,